Location: Columbus
(29.5618°N, 96.6770°W)
Time: 09:00:16
(UTC-06:00)

Daily predictions for brighter satellites

Satellite Brightness Start Highest point End
(mag) Time Altitude Azimuth Time Altitude Azimuth Time Altitude Azimuth
Cosmos 371 Rocket 3.7 18:12:36 10° SSW 18:17:23 68° WNW 18:22:10 10° N
YAOGAN 1 2.7 18:13:49 10° S 18:18:08 83° WSW 18:22:29 10° NNW
CZ-4 R/B 4.4 18:15:06 10° SSE 18:19:15 76° ENE 18:23:23 10° N
Cosmos 2219 Rocket 2.9 18:14:18 10° SSW 18:19:50 56° WNW 18:25:22 10° N
OAO 3 Rocket 3.2 18:15:02 10° WNW 18:19:57 87° NNE 18:24:49 10° ESE
Cosmos 2058 3.4 18:17:03 10° SSE 18:20:53 38° E 18:24:42 10° NNE
COSMO-SKYMED 1 2.5 18:19:18 10° NNE 18:23:38 74° E 18:27:57 10° S
SPOT 3 Rocket 3.9 18:19:55 10° S 18:25:02 73° WSW 18:30:11 10° NNW
Atlas Centaur 2 2.7 18:19:52 10° W 18:25:10 48° SSW 18:29:22 10° SE
SEDSat Delta rocket 3.7 18:19:46 10° WNW 18:25:39 78° SSW 18:30:43 10° ESE
SMAP 3.9 18:22:19 10° S 18:26:52 55° W 18:31:26 10° NNW
Cosmos 1626 3.6 18:28:15 10° SE 18:30:54 19° E 18:33:33 10° NE
Cosmos 1125 Rocket 3.8 18:26:31 10° N 18:31:28 43° ENE 18:36:22 10° SE
Cosmos 2278 Rocket 2.7 18:28:18 10° N 18:33:31 36° ENE 18:38:41 10° SE
Cosmos 2228 Rocket 3.9 18:29:20 10° NNW 18:33:39 57° W 18:38:01 10° S
Cosmos 1340 Rocket 3.1 18:30:44 10° SSE 18:34:31 45° E 18:38:16 10° NNE
Cosmos 2279 Rocket 4.2 18:33:56 10° N 18:39:54 47° E 18:45:51 10° SSE
SL-14 R/B 3.5 18:36:48 10° S 18:40:40 74° W 18:44:36 10° N
IDEFIX/ARIANE 42P 4.5 18:38:49 10° SSW 18:43:28 34° W 18:48:11 10° NNW
Cosmos 1356 Rocket 4.2 18:40:45 10° SSE 18:44:11 28° E 18:47:32 11° NNE
USA 229 DEB 4.5 18:38:51 10° S 18:44:40 31° ESE 18:49:29 14° ENE
USA 229 4.5 18:38:59 10° SSE 18:44:46 30° ESE 18:49:32 14° ENE
Abrixas rocket 4.0 18:42:02 10° WNW 18:45:06 35° SW 18:48:09 10° SSE
Cosmos 1484 Rocket 3.1 18:41:16 10° S 18:45:07 72° W 18:49:04 10° NNW
Cosmos 1844 3.8 18:39:28 10° NNW 18:45:16 88° ENE 18:51:04 10° SSE
Cosmos 1184 Rocket 4.1 18:48:16 10° SE 18:50:52 21° E 18:51:06 21° E
Cosmos 2237 Rocket 3.1 18:46:39 10° SW 18:52:04 50° WNW 18:57:32 10° N
Cosmos 2151 3.8 18:48:09 10° SSW 18:52:15 52° W 18:56:21 10° N
Nadezhda 4 Rocket 4.3 18:47:41 10° SSE 18:53:27 42° E 18:59:19 10° NNE
Cosmos 1726 2.3 18:50:05 10° N 18:53:50 76° W 18:57:35 10° S
SL-16 R/B 2.1 18:51:49 10° S 18:57:26 69° ESE 19:03:03 10° NNE
Aureole 1 Rocket 4.3 18:53:52 10° SSE 18:57:52 29° E 19:01:10 17° NE
Cosmos 1300 3.0 18:54:11 10° NNW 18:57:59 68° W 19:01:47 10° S
Cosmos 2180 Rocket 4.5 18:54:09 10° N 19:00:13 58° E 19:06:20 10° SSE
Cosmos 304 Rocket 3.7 18:56:04 10° SSW 19:00:52 89° W 19:05:42 10° NNE
Aureole 2 Rocket 3.7 18:58:44 10° SW 19:02:05 44° WNW 19:05:47 10° N
Iridium 4 Rocket 4.1 18:58:16 10° SE 19:02:13 26° E 19:03:08 24° ENE
Centaur AC-119 2.6 19:02:21 10° SW 19:04:25 38° SSE 19:06:05 24° ESE
Hubble Space Telescope 2.5 19:03:06 10° W 19:06:41 28° SSW 19:10:16 10° SE
Cosmos 1805 Rocket 3.6 19:04:05 10° S 19:08:32 87° W 19:13:00 10° N
Cosmos 1092 Rocket 4.3 19:05:54 10° SSE 19:11:47 43° E 19:17:42 10° NNE
Cosmos 1151 Rocket 4.4 19:08:56 10° NNW 19:12:58 41° W 19:17:00 10° SSW
Cosmos 2297 4.2 19:08:33 10° N 19:13:48 37° ENE 19:17:57 15° SE
Lacrosse 5 rocket 2.9 19:14:18 10° N 19:16:06 20° NNE 19:16:06 20° NNE
Sich 1 3.1 19:25:50 10° S 19:30:15 77° W 19:34:13 13° N
Cosmos 773 Rocket 3.8 19:26:02 10° S 19:31:08 74° ESE 19:33:31 32° NNE
Cosmos 1633 Rocket 3.1 19:30:28 10° S 19:34:52 79° W 19:37:48 21° N
SJ-6B 3.6 19:36:36 10° S 19:40:31 52° W 19:44:31 10° NNW
FengYun 1-2 T 4.1 19:35:14 10° SSE 19:40:47 73° ENE 19:46:19 10° N
EPKM 3.8 19:37:37 10° WSW 19:41:29 29° SSW 19:41:29 29° SSW
OTV 4 2.8 19:39:58 10° WNW 19:41:02 20° NW 19:41:02 20° NW
Helios 1B rocket 3.5 19:45:00 34° S 19:45:00 34° S 19:47:26 10° S
FENGYUN 3A 3.5 19:38:26 10° SSE 19:43:45 73° ENE 19:49:06 10° N
ALOS 2.1 19:39:17 10° SSE 19:43:56 79° ENE 19:48:36 10° N
BREEZE-M DEB (TANK) 3.4 19:44:10 10° SSW 19:47:45 61° SE 19:49:16 48° ENE
Tiangong 1 4.0 19:48:00 10° SSW 19:48:17 12° SSW 19:48:17 12° SSW
Resurs 01 Rocket 3.5 19:46:53 10° SSE 19:55:07 14° NNW 19:55:47 10° NNW
USA 215 3.1 19:49:20 40° ESE 19:51:54 75° NE 19:58:27 10° NW
Milstar 3 3.5 19:49:47 10° W 19:56:09 50° SSW 19:59:52 29° SE
Cosmos 292 Rocket 4.4 19:52:09 10° S 19:55:26 44° S 19:55:26 44° S
Cosmos 1603 3.5 19:56:03 10° SSW 20:01:40 88° ESE 20:01:43 87° ENE
Cosmos 1627 Rocket 4.3 20:01:26 10° S 20:07:37 83° ESE 20:07:37 83° ESE
ATLAS 2A CENTAUR R/B 3.5 20:06:25 10° SW 20:07:21 20° SSW 20:07:21 20° SSW
Haruka 4.3 20:04:51 10° W 20:10:03 82° N 20:13:50 49° E
Atlas Centaur 2 4.2 20:12:01 10° SW 20:13:12 11° SW 20:14:19 10° SSW
Spot 2 Rocket 4.0 20:09:07 10° S 20:14:03 55° W 20:19:00 10° NNW
Cosmos 2278 Rocket 4.5 20:12:59 10° NW 20:17:16 22° W 20:21:32 10° SSW
H-2A ROCKET BODY 3.0 20:27:14 10° W 20:39:02 58° W 20:39:02 58° W
Centaur AC-72 4.5 20:52:59 10° WSW 20:59:57 50° S 21:01:10 49° SSE
